Location: Arcusa
(42.3167°N, 0.0833°W)
Time: 10:47:28
(UTC+00:00)

CENTAUR R/B - Pass Details

Date: 25 January 2020
Orbit: 766 x 1422 km, 63.5° (Epoch: 07 February)

Event Time Altitude Azimuth Distance (km) Brightness Sun altitude
Exits shadow 04:11:58 32° 354° (N) 2,097 4.1 -34.8°
Maximum altitude 04:15:20 47° 45° (NE) 1,745 3.9 -34.2°
Drops below altitude 10° 04:23:38 10° 116° (ESE) 3,506 6.0 -32.7°
Sets 04:26:47 0° 123° (ESE) 4,491 6.7 -32.1°
